Weather History for El Arish, Egypt

Change the Weather History Date:

Sunday, June 16, 2013

  Actual Average Record
Temperature  
Mean Temperature 72 °F -  
Max Temperature 82 °F 88 °F - ()
Min Temperature 62 °F 66 °F - ()
Cooling Degree Days 7    
Growing Degree Days 22 (Base 50)    
Moisture  
Dew Point 62 °F    
Average Humidity 65    
Maximum Humidity 88    
Minimum Humidity 37    
Precipitation  
Precipitation 0.00 in 0.00 in - ()
Sea Level Pressure  
Sea Level Pressure 29.85 in    
Wind  
Wind Speed 3 mph ()    
Max Wind Speed 9 mph    
Max Gust Speed -    
Visibility 6.2 miles    
Events      
T = Trace of Precipitation, MM = Missing Value Source: Averaged Metar Reports

Daily Weather History Graph

Daily Weather History Graph

Search for Another Location

Airport:

Trip Planner

Search our weather history database for the weather conditions in past years. The results will help you decide how hot, cold, wet, or windy it might be!

Date:

Astronomy

Jun. 16, 2013 Rise Set
Actual Time 4:40 AM EET 6:50 PM EET
Civil Twilight 4:12 AM EET 7:18 PM EET
Nautical Twilight 3:38 AM EET 7:52 PM EET
Astronomical Twilight 3:02 AM EET 8:28 PM EET
Moon 11:29 AM EET (6/16) 11:43 PM EET (6/16)
Length of Visible Light 15h 05m
Length of Day
14h 09m
Waxing Crescent, 47% of the Moon is Illuminated
Jun 16
Waxing Crescent
Jun 16
First Quarter
Jun 23
Full
Jun 30
Last Quarter
Jul 8
New

Hourly Weather History & Observations

Time (EET) Temp. Heat Index Dew Point Humidity Pressure Visibility Wind Dir Wind Speed Gust Speed Precip Events Conditions
12:00 AM 68.0 °F - 60.8 °F 78% 29.89 in - Calm Calm - N/A   Clear
1:00 AM 68.0 °F - 60.8 °F 78% 29.86 in - South 2.3 mph - N/A   Clear
2:00 AM 67 °F - 61 °F 75% 29.87 in 6 mi SSW 2.3 mph - -  
2:00 AM 66.2 °F - 60.8 °F 83% 29.86 in - SSW 2.3 mph - N/A   Clear
3:00 AM 64.4 °F - 60.8 °F 88% 29.86 in - South 2.3 mph - N/A   Clear
4:00 AM 64.4 °F - 59.0 °F 83% 29.86 in - South 3.5 mph - N/A   Clear
5:00 AM 62.6 °F - 59.0 °F 88% 29.86 in - South 3.5 mph - N/A   Clear
6:00 AM 68.0 °F - 60.8 °F 78% 29.86 in - South 3.5 mph - N/A   Clear
7:00 AM 73.4 °F - 60.8 °F 65% 29.89 in - SW 1.2 mph - N/A   Clear
8:00 AM 76 °F - 61 °F 50% 29.88 in 6 mi West 2.3 mph - -   Partly Cloudy
8:00 AM 77.0 °F - 60.8 °F 57% 29.86 in 6.2 mi West 2.3 mph - N/A   Scattered Clouds
9:00 AM 78.8 °F - 59.0 °F 51% 29.86 in 6.2 mi NNW 5.8 mph - N/A   Scattered Clouds
10:00 AM 78.8 °F - 60.8 °F 54% 29.86 in 6.2 mi NNW 6.9 mph - N/A   Scattered Clouds
11:00 AM 80.6 °F 81.5 °F 60.8 °F 51% 29.86 in 6.2 mi North 5.8 mph - N/A   Scattered Clouds
12:00 PM 82.4 °F 81.4 °F 53.6 °F 37% 29.86 in 6.2 mi NNW 5.8 mph - N/A   Scattered Clouds
1:00 PM 82.4 °F 82.5 °F 59.0 °F 45% 29.86 in 6.2 mi NNW 9.2 mph - N/A   Scattered Clouds
2:00 PM 81 °F - 63 °F 44% 29.85 in 6 mi NNW 9.2 mph - -   Scattered Clouds
2:00 PM 80.6 °F 81.8 °F 62.6 °F 54% 29.83 in 6.2 mi NNW 9.2 mph - N/A   Partly Cloudy
3:00 PM 80.6 °F 81.8 °F 62.6 °F 54% 29.83 in 6.2 mi North 6.9 mph - N/A   Partly Cloudy
4:00 PM 80.6 °F 81.8 °F 62.6 °F 54% 29.83 in 6.2 mi North 9.2 mph - N/A   Partly Cloudy
5:00 PM 78.8 °F - 64.4 °F 61% 29.83 in - NNW 8.1 mph - N/A   Clear
6:00 PM 77.0 °F - 64.4 °F 65% 29.80 in - NNW 6.9 mph - N/A   Clear
7:00 PM 75.2 °F - 64.4 °F 69% 29.83 in - North 4.6 mph - N/A   Clear
8:00 PM 74 °F - 65 °F 65% 29.85 in 6 mi NNW 4.6 mph - -  
8:00 PM 73.4 °F - 64.4 °F 73% 29.83 in - NNW 4.6 mph - N/A   Clear
9:00 PM 73.4 °F - 64.4 °F 73% 29.83 in 6.2 mi North 2.3 mph - N/A   Partly Cloudy
10:00 PM 71.6 °F - 64.4 °F 78% 29.83 in 6.2 mi Calm Calm - N/A   Partly Cloudy
11:00 PM 69.8 °F - 62.6 °F 78% 29.83 in 6.2 mi SSE 2.3 mph - N/A   Partly Cloudy